| time (UTC) | temp F | wind direction | speed MPH | gust MPH | rain 1hr in | rain 24hr in | rain mn in | humidity % | barometer mb |
| 20260902065204 | 60 | 224 | 1.0 | 3.0 | 0.00 | 0.04 | 0.00 | 89 | 1017.9 |
| 20260902064706 | 59 | 288 | 1.0 | 3.0 | 0.00 | 0.04 | 0.00 | 90 | 1017.8 |
| 20260902064203 | 59 | 266 | 0.0 | 3.0 | 0.00 | 0.04 | 0.00 | 91 | 1017.8 |
| 20260902063703 | 58 | 258 | 0.0 | 2.0 | 0.00 | 0.04 | 0.00 | 92 | 1017.9 |
| 20260902063204 | 58 | 276 | 1.0 | 3.0 | 0.00 | 0.04 | 0.00 | 92 | 1017.8 |
| 20260902062701 | 57 | 279 | 0.0 | 3.0 | 0.00 | 0.04 | 0.00 | 93 | 1017.8 |
| 20260902062154 | 57 | 280 | 0.0 | 2.0 | 0.00 | 0.04 | 0.00 | 93 | 1017.9 |
| 20260902061916 | 57 | 266 | 0.0 | 0.0 | 0.00 | 0.04 | 0.00 | 93 | 1017.8 |
| 20260902061141 | 57 | 266 | 0.0 | 0.0 | 0.00 | 0.04 | 0.00 | 93 | 1017.8 |
| 20260902060909 | 57 | 266 | 0.0 | 0.0 | 0.00 | 0.04 | 0.00 | 93 | 1017.8 |
| 20260902060139 | 56 | 266 | 0.0 | 0.0 | 0.00 | 0.04 | 0.00 | 93 | 1017.8 |
| 20260902055639 | 56 | 266 | 0.0 | 1.0 | 0.00 | 0.04 | 0.00 | 93 | 1017.7 |
| 20260902055138 | 56 | 266 | 0.0 | 1.0 | 0.00 | 0.04 | 0.00 | 93 | 1017.7 |
| 20260902054902 | 56 | 266 | 0.0 | 0.0 | 0.00 | 0.04 | 0.00 | 93 | 1017.6 |
| 20260902054137 | 56 | 240 | 0.0 | 0.0 | 0.00 | 0.04 | 0.00 | 93 | 1017.6 |
| 20260902053637 | 56 | 240 | 0.0 | 0.0 | 0.00 | 0.04 | 0.00 | 93 | 1017.7 |
| 20260902053138 | 56 | 240 | 0.0 | 0.0 | 0.00 | 0.04 | 0.00 | 93 | 1017.6 |
| 20260902052637 | 56 | 240 | 0.0 | 0.0 | 0.00 | 0.04 | 0.00 | 93 | 1017.6 |
| 20260902052137 | 56 | 240 | 0.0 | 0.0 | 0.00 | 0.04 | 0.00 | 93 | 1017.5 |
| 20260902051635 | 56 | 240 | 0.0 | 0.0 | 0.00 | 0.04 | 0.00 | 93 | 1017.5 |
| 20260902051151 | 56 | 240 | 0.0 | 2.0 | 0.00 | 0.04 | 0.00 | 93 | 1017.5 |
| 20260902051146 | 56 | 240 | 0.0 | 1.0 | 0.00 | 0.04 | 0.00 | 93 | 1017.4 |
| 20260902050400 | 56 | 240 | 0.0 | 2.0 | 0.00 | 0.04 | 0.00 | 93 | 1017.4 |
| 20260902045635 | 56 | 302 | 0.0 | 0.0 | 0.00 | 0.04 | 0.00 | 93 | 1017.4 |
| 20260902045135 | 56 | 302 | 0.0 | 2.0 | 0.00 | 0.04 | 0.00 | 93 | 1017.3 |
| 20260902044911 | 56 | 302 | 0.0 | 2.0 | 0.00 | 0.04 | 0.00 | 94 | 1017.3 |
| 20260902044136 | 57 | 84 | 0.0 | 0.0 | 0.00 | 0.04 | 0.00 | 94 | 1017.2 |
| 20260902043635 | 57 | 84 | 0.0 | 0.0 | 0.00 | 0.04 | 0.00 | 94 | 1017.2 |
| 20260902043135 | 57 | 84 | 0.0 | 0.0 | 0.00 | 0.04 | 0.00 | 94 | 1017.2 |
| 20260902042635 | 57 | 84 | 0.0 | 2.0 | 0.00 | 0.04 | 0.00 | 95 | 1017.2 |
| 20260902042407 | 57 | 84 | 0.0 | 2.0 | 0.00 | 0.04 | 0.00 | 95 | 1017.2 |
| 20260902041635 | 56 | 204 | 0.0 | 2.0 | 0.00 | 0.04 | 0.00 | 95 | 1017.2 |
| 20260902041135 | 56 | 261 | 0.0 | 2.0 | 0.00 | 0.04 | 0.00 | 96 | 1017.2 |
| 20260902040634 | 56 | 211 | 0.0 | 2.0 | 0.00 | 0.04 | 0.00 | 96 | 1017.1 |
| 20260902040136 | 56 | 288 | 0.0 | 1.0 | 0.00 | 0.04 | 0.00 | 96 | 1017.2 |
| 20260902035635 | 56 | 288 | 0.0 | 2.0 | 0.00 | 0.04 | 0.00 | 97 | 1017.3 |
| 20260902035135 | 56 | 266 | 0.0 | 2.0 | 0.00 | 0.04 | 0.00 | 97 | 1017.3 |
| 20260902034634 | 56 | 38 | 0.0 | 2.0 | 0.00 | 0.04 | 0.00 | 97 | 1017.3 |
| 20260902034140 | 56 | 38 | 0.0 | 1.0 | 0.00 | 0.04 | 0.00 | 97 | 1017.2 |
| 20260902033907 | 56 | 38 | 0.0 | 1.0 | 0.00 | 0.04 | 0.00 | 97 | 1017.3 |
| 20260902033146 | 56 | 38 | 0.0 | 0.0 | 0.00 | 0.04 | 0.00 | 97 | 1017.3 |
| 20260902033138 | 56 | 38 | 0.0 | 1.0 | 0.00 | 0.04 | 0.00 | 97 | 1017.4 |
| 20260902032126 | 56 | 38 | 0.0 | 0.0 | 0.00 | 0.04 | 0.00 | 97 | 1017.3 |
| 20260902031849 | 56 | 38 | 0.0 | 0.0 | 0.00 | 0.04 | 0.00 | 97 | 1017.2 |
| 20260902031114 | 56 | 38 | 0.0 | 0.0 | 0.00 | 0.04 | 0.00 | 97 | 1017.2 |
| 20260902030612 | 56 | 38 | 0.0 | 0.0 | 0.00 | 0.04 | 0.00 | 97 | 1017.2 |
| 20260902030110 | 56 | 38 | 0.0 | 0.0 | 0.00 | 0.04 | 0.00 | 97 | 1017.2 |
| 20260902025609 | 56 | 38 | 0.0 | 0.0 | 0.00 | 0.04 | 0.00 | 97 | 1017.3 |
| 20260902025109 | 56 | 38 | 0.0 | 0.0 | 0.00 | 0.04 | 0.00 | 97 | 1017.2 |
| 20260902024629 | 56 | 38 | 0.0 | 0.0 | 0.00 | 0.04 | 0.00 | 97 | 1017.3 |
| 20260902024623 | 56 | 38 | 0.0 | 0.0 | 0.00 | 0.04 | 0.00 | 97 | 1017.2 |
| 20260902023603 | 56 | 38 | 0.0 | 0.0 | 0.00 | 0.04 | 0.00 | 97 | 1017.3 |
| 20260902023102 | 57 | 38 | 0.0 | 0.0 | 0.00 | 0.04 | 0.00 | 97 | 1017.3 |
| 20260902022603 | 57 | 38 | 0.0 | 0.0 | 0.00 | 0.04 | 0.00 | 97 | 1017.2 |
| 20260902022335 | 57 | 38 | 0.0 | 0.0 | 0.00 | 0.04 | 0.00 | 97 | 1017.3 |
| 20260902021603 | 57 | 38 | 0.0 | 0.0 | 0.00 | 0.04 | 0.00 | 97 | 1017.4 |
| 20260902021104 | 57 | 38 | 0.0 | 0.0 | 0.00 | 0.04 | 0.00 | 97 | 1017.4 |
| 20260902020602 | 57 | 38 | 0.0 | 0.0 | 0.00 | 0.04 | 0.00 | 97 | 1017.4 |
| 20260902015600 | 57 | 38 | 0.0 | 0.0 | 0.00 | 0.04 | 0.00 | 97 | 1017.4 |
| 20260902015101 | 58 | 38 | 0.0 | 0.0 | 0.00 | 0.04 | 0.00 | 97 | 1017.4 |
| 20260902014603 | 58 | 38 | 0.0 | 0.0 | 0.00 | 0.04 | 0.00 | 97 | 1017.5 |
| 20260902014059 | 58 | 38 | 0.0 | 0.0 | 0.00 | 0.04 | 0.00 | 97 | 1017.5 |
| 20260902013556 | 58 | 38 | 0.0 | 0.0 | 0.00 | 0.04 | 0.00 | 97 | 1017.6 |
| 20260902013050 | 58 | 38 | 0.0 | 0.0 | 0.00 | 0.04 | 0.00 | 97 | 1017.7 |
| 20260902012544 | 58 | 38 | 0.0 | 0.0 | 0.00 | 0.04 | 0.00 | 97 | 1017.7 |
| 20260902012055 | 58 | 38 | 0.0 | 0.0 | 0.00 | 0.04 | 0.00 | 97 | 1017.5 |
| 20260902012049 | 58 | 38 | 0.0 | 0.0 | 0.00 | 0.04 | 0.00 | 97 | 1017.6 |
| 20260902011026 | 58 | 38 | 0.0 | 0.0 | 0.00 | 0.04 | 0.00 | 97 | 1017.4 |
| 20260902010522 | 58 | 38 | 0.0 | 0.0 | 0.00 | 0.04 | 0.00 | 97 | 1017.4 |
| 20260902010026 | 58 | 38 | 0.0 | 0.0 | 0.00 | 0.04 | 0.00 | 97 | 1017.4 |
| 20260902005526 | 58 | 38 | 0.0 | 0.0 | 0.00 | 0.04 | 0.00 | 97 | 1017.3 |
| 20260902005022 | 58 | 38 | 0.0 | 0.0 | 0.00 | 0.04 | 0.00 | 97 | 1017.4 |
| 20260902004524 | 58 | 38 | 0.0 | 0.0 | 0.00 | 0.04 | 0.00 | 97 | 1017.5 |
| 20260902004024 | 58 | 38 | 0.0 | 0.0 | 0.00 | 0.04 | 0.00 | 97 | 1017.3 |
| 20260902003521 | 58 | 38 | 0.0 | 0.0 | 0.00 | 0.04 | 0.00 | 97 | 1017.4 |
| 20260902003253 | 58 | 38 | 0.0 | 0.0 | 0.00 | 0.04 | 0.00 | 97 | 1017.4 |
| 20260902002527 | 58 | 38 | 0.0 | 0.0 | 0.00 | 0.04 | 0.00 | 97 | 1017.5 |
| 20260902002018 | 58 | 38 | 0.0 | 0.0 | 0.00 | 0.04 | 0.00 | 97 | 1017.6 |
| 20260902001523 | 58 | 38 | 0.0 | 0.0 | 0.00 | 0.04 | 0.00 | 97 | 1017.5 |
| 20260902001024 | 58 | 38 | 0.0 | 0.0 | 0.00 | 0.04 | 0.00 | 97 | 1017.5 |
| 20260902000520 | 58 | 38 | 0.0 | 0.0 | 0.00 | 0.04 | 0.00 | 97 | 1017.6 |
| 20260902000035 | 58 | 38 | 0.0 | 0.0 | 0.00 | 0.04 | 0.00 | 97 | 1017.6 |
| 20260901235507 | 58 | 38 | 0.0 | 0.0 | 0.00 | 0.04 | 0.00 | 97 | 1017.6 |
| 20260901235005 | 58 | 38 | 0.0 | 0.0 | 0.00 | 0.04 | 0.00 | 96 | 1017.5 |
| 20260901234545 | 58 | 38 | 0.0 | 0.0 | 0.00 | 0.04 | 0.00 | 96 | 1017.6 |
| 20260901234518 | 58 | 38 | 0.0 | 0.0 | 0.00 | 0.04 | 0.00 | 96 | 1017.5 |
| 20260901233504 | 58 | 38 | 0.0 | 0.0 | 0.00 | 0.04 | 0.00 | 96 | 1017.6 |
| 20260901233005 | 58 | 38 | 0.0 | 0.0 | 0.00 | 0.04 | 0.00 | 96 | 1017.7 |
| 20260901232506 | 58 | 38 | 0.0 | 0.0 | 0.00 | 0.04 | 0.00 | 96 | 1017.7 |
| 20260901232005 | 58 | 38 | 0.0 | 0.0 | 0.00 | 0.04 | 0.00 | 96 | 1017.7 |
| 20260901231504 | 58 | 38 | 0.0 | 0.0 | 0.00 | 0.04 | 0.00 | 95 | 1017.7 |
| 20260901231005 | 58 | 38 | 0.0 | 0.0 | 0.00 | 0.04 | 0.00 | 95 | 1017.7 |
| 20260901230505 | 58 | 38 | 0.0 | 0.0 | 0.00 | 0.04 | 0.00 | 95 | 1017.7 |
| 20260901230011 | 58 | 38 | 0.0 | 0.0 | 0.00 | 0.04 | 0.00 | 95 | 1017.7 |
| 20260901225500 | 58 | 38 | 0.0 | 0.0 | 0.00 | 0.04 | 0.00 | 95 | 1017.7 |
| 20260901225000 | 58 | 38 | 0.0 | 0.0 | 0.00 | 0.04 | 0.00 | 95 | 1017.7 |
| 20260901224500 | 58 | 38 | 0.0 | 0.0 | 0.00 | 0.04 | 0.00 | 95 | 1017.6 |
| 20260901223957 | 58 | 38 | 0.0 | 0.0 | 0.00 | 0.04 | 0.00 | 95 | 1017.8 |
| 20260901223810 | 58 | 38 | 0.0 | 0.0 | 0.00 | 0.04 | 0.00 | 95 | 1017.7 |
| 20260901223509 | 58 | 38 | 0.0 | 0.0 | 0.00 | 0.04 | 0.00 | 95 | 1017.7 |
| 20260901222454 | 59 | 38 | 0.0 | 0.0 | 0.00 | 0.04 | 0.00 | 95 | 1017.6 |
| 20260901221954 | 59 | 38 | 0.0 | 0.0 | 0.00 | 0.04 | 0.00 | 95 | 1017.7 |
| 20260901221454 | 59 | 38 | 0.0 | 0.0 | 0.00 | 0.04 | 0.00 | 95 | 1017.7 |
| 20260901220954 | 59 | 38 | 0.0 | 0.0 | 0.00 | 0.04 | 0.00 | 95 | 1017.7 |
| 20260901220454 | 59 | 38 | 0.0 | 0.0 | 0.00 | 0.04 | 0.00 | 95 | 1017.8 |
| 20260901215953 | 59 | 38 | 0.0 | 0.0 | 0.00 | 0.04 | 0.04 | 95 | 1017.9 |
| 20260901215451 | 59 | 38 | 0.0 | 0.0 | 0.00 | 0.04 | 0.04 | 95 | 1017.9 |
| 20260901214951 | 59 | 38 | 0.0 | 0.0 | 0.00 | 0.04 | 0.04 | 95 | 1017.9 |
| 20260901214451 | 59 | 38 | 0.0 | 0.0 | 0.00 | 0.04 | 0.04 | 95 | 1018.0 |
| 20260901213951 | 59 | 38 | 0.0 | 0.0 | 0.00 | 0.04 | 0.04 | 95 | 1018.1 |
| 20260901213449 | 59 | 38 | 0.0 | 0.0 | 0.00 | 0.04 | 0.04 | 95 | 1018.0 |
| 20260901212945 | 59 | 38 | 0.0 | 0.0 | 0.00 | 0.04 | 0.04 | 95 | 1018.0 |
| 20260901212443 | 59 | 38 | 0.0 | 0.0 | 0.00 | 0.04 | 0.04 | 94 | 1018.0 |
| 20260901211941 | 59 | 38 | 0.0 | 0.0 | 0.00 | 0.04 | 0.04 | 94 | 1017.9 |
| 20260901211439 | 59 | 38 | 0.0 | 0.0 | 0.00 | 0.04 | 0.04 | 94 | 1018.0 |
| 20260901210938 | 59 | 38 | 0.0 | 0.0 | 0.00 | 0.04 | 0.04 | 94 | 1017.9 |
| 20260901210723 | 59 | 38 | 0.0 | 0.0 | 0.00 | 0.04 | 0.04 | 94 | 1017.8 |
| 20260901205935 | 59 | 38 | 0.0 | 0.0 | 0.00 | 0.04 | 0.04 | 94 | 1017.8 |
| 20260901205435 | 59 | 38 | 0.0 | 0.0 | 0.00 | 0.04 | 0.04 | 93 | 1017.9 |
| 20260901204936 | 59 | 38 | 0.0 | 0.0 | 0.00 | 0.04 | 0.04 | 93 | 1017.9 |
| 20260901204435 | 59 | 38 | 0.0 | 0.0 | 0.00 | 0.04 | 0.04 | 93 | 1017.8 |
| 20260901203933 | 59 | 38 | 0.0 | 0.0 | 0.00 | 0.04 | 0.04 | 93 | 1017.8 |
| 20260901203431 | 59 | 38 | 0.0 | 0.0 | 0.00 | 0.04 | 0.04 | 93 | 1017.8 |
| 20260901202930 | 59 | 38 | 0.0 | 0.0 | 0.00 | 0.04 | 0.04 | 92 | 1017.8 |
| 20260901202719 | 59 | 38 | 0.0 | 0.0 | 0.00 | 0.04 | 0.04 | 92 | 1017.6 |
| 20260901201930 | 60 | 38 | 0.0 | 0.0 | 0.00 | 0.04 | 0.04 | 92 | 1017.6 |
| 20260901201431 | 60 | 38 | 0.0 | 0.0 | 0.00 | 0.04 | 0.04 | 92 | 1017.6 |
| 20260901200930 | 60 | 38 | 0.0 | 0.0 | 0.00 | 0.04 | 0.04 | 92 | 1017.6 |
| 20260901200430 | 60 | 38 | 0.0 | 0.0 | 0.00 | 0.04 | 0.04 | 92 | 1017.7 |
| 20260901195934 | 60 | 38 | 0.0 | 0.0 | 0.00 | 0.04 | 0.04 | 92 | 1017.7 |
| 20260901195430 | 60 | 38 | 0.0 | 0.0 | 0.00 | 0.04 | 0.04 | 91 | 1017.7 |
| 20260901194938 | 60 | 38 | 0.0 | 0.0 | 0.00 | 0.04 | 0.04 | 91 | 1017.7 |
| 20260901194434 | 60 | 38 | 0.0 | 0.0 | 0.00 | 0.04 | 0.04 | 91 | 1017.6 |
| 20260901193933 | 60 | 38 | 0.0 | 0.0 | 0.00 | 0.04 | 0.04 | 90 | 1017.6 |
| 20260901193431 | 60 | 38 | 0.0 | 0.0 | 0.00 | 0.04 | 0.04 | 90 | 1017.5 |
| 20260901192927 | 61 | 38 | 0.0 | 0.0 | 0.00 | 0.04 | 0.04 | 89 | 1017.5 |
| 20260901192428 | 61 | 38 | 0.0 | 0.0 | 0.00 | 0.04 | 0.04 | 88 | 1017.4 |
| 20260901191927 | 61 | 38 | 0.0 | 0.0 | 0.00 | 0.04 | 0.04 | 88 | 1017.4 |
| 20260901191428 | 61 | 38 | 0.0 | 0.0 | 0.00 | 0.04 | 0.04 | 88 | 1017.5 |
| 20260901190928 | 62 | 38 | 0.0 | 0.0 | 0.00 | 0.04 | 0.04 | 87 | 1017.5 |
| 20260901190428 | 62 | 38 | 0.0 | 0.0 | 0.00 | 0.04 | 0.04 | 86 | 1017.5 |
| 20260901185927 | 62 | 38 | 0.0 | 0.0 | 0.00 | 0.04 | 0.04 | 86 | 1017.5 |
| 20260901185428 | 63 | 38 | 0.0 | 0.0 | 0.00 | 0.04 | 0.04 | 85 | 1017.5 |
| 20260901184928 | 63 | 38 | 0.0 | 0.0 | 0.00 | 0.04 | 0.04 | 84 | 1017.4 |
| 20260901184427 | 63 | 38 | 0.0 | 0.0 | 0.00 | 0.04 | 0.04 | 84 | 1017.4 |
| 20260901183926 | 64 | 38 | 0.0 | 0.0 | 0.00 | 0.04 | 0.04 | 83 | 1017.3 |
| 20260901183426 | 64 | 38 | 0.0 | 0.0 | 0.00 | 0.04 | 0.04 | 83 | 1017.4 |
| 20260901183204 | 64 | 38 | 0.0 | 0.0 | 0.00 | 0.04 | 0.04 | 82 | 1017.3 |
| 20260901182423 | 65 | 38 | 0.0 | 0.0 | 0.00 | 0.04 | 0.04 | 82 | 1017.4 |
| 20260901181922 | 66 | 38 | 0.0 | 0.0 | 0.00 | 0.04 | 0.04 | 80 | 1017.4 |
| 20260901181421 | 66 | 38 | 0.0 | 0.0 | 0.00 | 0.04 | 0.04 | 80 | 1017.4 |
| 20260901181201 | 67 | 38 | 0.0 | 0.0 | 0.00 | 0.04 | 0.04 | 79 | 1017.3 |
| 20260901180418 | 67 | 38 | 0.0 | 0.0 | 0.00 | 0.04 | 0.04 | 78 | 1017.3 |
| 20260901175917 | 68 | 38 | 0.0 | 0.0 | 0.00 | 0.04 | 0.04 | 77 | 1017.3 |
| 20260901175416 | 68 | 38 | 0.0 | 1.0 | 0.00 | 0.04 | 0.04 | 76 | 1017.3 |
| 20260901174913 | 69 | 38 | 0.0 | 1.0 | 0.00 | 0.04 | 0.04 | 76 | 1017.3 |
| 20260901174411 | 69 | 38 | 0.0 | 1.0 | 0.00 | 0.04 | 0.04 | 74 | 1017.3 |
| 20260901174151 | 70 | 38 | 0.0 | 3.0 | 0.00 | 0.04 | 0.04 | 74 | 1017.2 |
| 20260901173650 | 70 | 38 | 0.0 | 3.0 | 0.00 | 0.04 | 0.04 | 70 | 1017.2 |
| 20260901172906 | 71 | 353 | 0.0 | 3.0 | 0.00 | 0.04 | 0.04 | 72 | 1017.2 |
| 20260901172404 | 71 | 338 | 0.0 | 3.0 | 0.00 | 0.04 | 0.04 | 68 | 1017.2 |
| 20260901172141 | 72 | 264 | 0.0 | 3.0 | 0.00 | 0.04 | 0.04 | 67 | 1017.2 |
| 20260901171354 | 73 | 257 | 0.0 | 3.0 | 0.00 | 0.04 | 0.04 | 65 | 1017.2 |
| 20260901170848 | 73 | 9 | 1.0 | 3.0 | 0.00 | 0.04 | 0.04 | 64 | 1017.2 |
| 20260901170340 | 73 | 19 | 1.0 | 3.0 | 0.00 | 0.04 | 0.04 | 64 | 1017.2 |
| 20260901165835 | 73 | 94 | 1.0 | 4.0 | 0.00 | 0.04 | 0.04 | 66 | 1017.2 |
| 20260901165616 | 73 | 113 | 1.0 | 4.0 | 0.00 | 0.04 | 0.04 | 66 | 1017.2 |
| 20260901164833 | 73 | 311 | 1.0 | 3.0 | 0.00 | 0.04 | 0.04 | 66 | 1017.2 |
| 20260901164333 | 73 | 60 | 1.0 | 3.0 | 0.00 | 0.04 | 0.04 | 70 | 1017.2 |
| 20260901163831 | 73 | 337 | 1.0 | 3.0 | 0.00 | 0.04 | 0.04 | 67 | 1017.2 |
| 20260901163331 | 73 | 338 | 1.0 | 3.0 | 0.00 | 0.04 | 0.04 | 65 | 1017.1 |
| 20260901162831 | 73 | 313 | 0.0 | 1.0 | 0.00 | 0.04 | 0.04 | 71 | 1017.1 |
| 20260901162330 | 73 | 255 | 0.0 | 2.0 | 0.00 | 0.04 | 0.04 | 67 | 1017.1 |
| 20260901161831 | 72 | 307 | 1.0 | 5.0 | 0.00 | 0.04 | 0.04 | 67 | 1017.1 |
| 20260901161330 | 72 | 245 | 1.0 | 5.0 | 0.00 | 0.04 | 0.04 | 69 | 1017.2 |
| 20260901160830 | 71 | 219 | 1.0 | 3.0 | 0.00 | 0.04 | 0.04 | 69 | 1017.2 |
| 20260901160332 | 71 | 293 | 1.0 | 3.0 | 0.00 | 0.04 | 0.04 | 68 | 1017.2 |
| 20260901155830 | 71 | 51 | 1.0 | 3.0 | 0.00 | 0.04 | 0.04 | 69 | 1017.2 |
| 20260901155331 | 71 | 285 | 1.0 | 5.0 | 0.00 | 0.04 | 0.04 | 69 | 1017.2 |
| 20260901154830 | 71 | 8 | 0.0 | 5.0 | 0.00 | 0.04 | 0.04 | 69 | 1017.2 |
| 20260901154615 | 71 | 15 | 0.0 | 2.0 | 0.00 | 0.04 | 0.04 | 69 | 1017.2 |
| 20260901153828 | 72 | 262 | 0.0 | 3.0 | 0.00 | 0.04 | 0.04 | 69 | 1017.3 |
| 20260901153326 | 72 | 262 | 0.0 | 3.0 | 0.00 | 0.04 | 0.04 | 67 | 1017.3 |
| 20260901152824 | 72 | 32 | 0.0 | 7.0 | 0.00 | 0.04 | 0.04 | 66 | 1017.3 |
| 20260901152318 | 72 | 342 | 1.0 | 7.0 | 0.00 | 0.04 | 0.04 | 69 | 1017.3 |
| 20260901152100 | 72 | 350 | 2.0 | 7.0 | 0.00 | 0.04 | 0.04 | 66 | 1017.3 |
| 20260901151316 | 73 | 272 | 2.0 | 7.0 | 0.00 | 0.04 | 0.04 | 65 | 1017.3 |
| 20260901150816 | 73 | 171 | 1.0 | 3.0 | 0.00 | 0.04 | 0.04 | 64 | 1017.2 |
| 20260901150318 | 74 | 31 | 1.0 | 5.0 | 0.00 | 0.04 | 0.04 | 63 | 1017.1 |
| 20260901150109 | 74 | 281 | 2.0 | 5.0 | 0.00 | 0.04 | 0.04 | 60 | 1017.0 |
| 20260901145316 | 74 | 254 | 2.0 | 7.0 | 0.00 | 0.04 | 0.04 | 64 | 1017.0 |
| 20260901144814 | 74 | 303 | 2.0 | 7.0 | 0.00 | 0.04 | 0.04 | 63 | 1016.9 |
| 20260901144314 | 74 | 118 | 2.0 | 6.0 | 0.00 | 0.04 | 0.04 | 62 | 1017.0 |
| 20260901143811 | 73 | 294 | 3.0 | 7.0 | 0.00 | 0.04 | 0.04 | 62 | 1017.1 |
| 20260901143311 | 73 | 286 | 3.0 | 7.0 | 0.00 | 0.04 | 0.04 | 64 | 1017.1 |
| 20260901142811 | 74 | 332 | 3.0 | 8.0 | 0.00 | 0.04 | 0.04 | 62 | 1017.2 |
| 20260901142308 | 74 | 263 | 2.0 | 8.0 | 0.00 | 0.04 | 0.04 | 61 | 1017.2 |
| 20260901141809 | 74 | 64 | 2.0 | 6.0 | 0.00 | 0.04 | 0.04 | 64 | 1017.2 |
| 20260901141308 | 73 | 283 | 3.0 | 9.0 | 0.00 | 0.04 | 0.04 | 65 | 1017.2 |
| 20260901140809 | 73 | 172 | 2.0 | 9.0 | 0.00 | 0.04 | 0.04 | 64 | 1017.2 |
| 20260901140309 | 73 | 298 | 2.0 | 6.0 | 0.00 | 0.04 | 0.04 | 67 | 1017.2 |
| 20260901135808 | 73 | 286 | 3.0 | 7.0 | 0.00 | 0.04 | 0.04 | 67 | 1017.2 |
| 20260901135321 | 72 | 243 | 2.0 | 7.0 | 0.00 | 0.04 | 0.04 | 68 | 1017.2 |
| 20260901135314 | 72 | 295 | 3.0 | 7.0 | 0.00 | 0.04 | 0.04 | 66 | 1017.2 |
| 20260901134302 | 71 | 294 | 2.0 | 5.0 | 0.00 | 0.04 | 0.04 | 68 | 1017.2 |
| 20260901133803 | 70 | 82 | 2.0 | 7.0 | 0.00 | 0.04 | 0.04 | 72 | 1017.2 |
| 20260901133302 | 70 | 253 | 2.0 | 7.0 | 0.00 | 0.04 | 0.04 | 73 | 1017.1 |
| 20260901132802 | 70 | 280 | 3.0 | 7.0 | 0.00 | 0.04 | 0.04 | 71 | 1017.2 |
| 20260901132306 | 71 | 101 | 3.0 | 7.0 | 0.00 | 0.04 | 0.04 | 71 | 1017.3 |
| 20260901132044 | 71 | 240 | 3.0 | 7.0 | 0.00 | 0.04 | 0.04 | 70 | 1017.3 |
| 20260901131303 | 72 | 290 | 3.0 | 9.0 | 0.00 | 0.04 | 0.04 | 68 | 1017.3 |
| 20260901130802 | 73 | 299 | 3.0 | 9.0 | 0.00 | 0.04 | 0.04 | 68 | 1017.2 |
| 20260901130302 | 72 | 160 | 2.0 | 6.0 | 0.00 | 0.04 | 0.04 | 70 | 1017.3 |
| 20260901125803 | 72 | 305 | 2.0 | 8.0 | 0.00 | 0.04 | 0.04 | 68 | 1017.2 |
| 20260901125308 | 72 | 235 | 2.0 | 8.0 | 0.00 | 0.04 | 0.04 | 67 | 1017.3 |
| 20260901124802 | 72 | 255 | 1.0 | 6.0 | 0.00 | 0.05 | 0.04 | 70 | 1017.3 |
| 20260901124302 | 71 | 278 | 1.0 | 4.0 | 0.00 | 0.05 | 0.04 | 75 | 1017.2 |
| 20260901123802 | 71 | 250 | 1.0 | 4.0 | 0.00 | 0.05 | 0.04 | 73 | 1017.3 |
| 20260901123303 | 72 | 297 | 2.0 | 5.0 | 0.00 | 0.07 | 0.04 | 72 | 1017.3 |
| 20260901123045 | 72 | 25 | 2.0 | 7.0 | 0.00 | 0.17 | 0.04 | 72 | 1017.3 |
| 20260901122306 | 72 | 313 | 2.0 | 7.0 | 0.00 | 0.17 | 0.04 | 73 | 1017.3 |
| 20260901121802 | 72 | 267 | 2.0 | 5.0 | 0.00 | 0.18 | 0.04 | 74 | 1017.3 |
| 20260901121557 | 71 | 292 | 2.0 | 7.0 | 0.00 | 0.18 | 0.04 | 75 | 1017.3 |
| 20260901120802 | 70 | 338 | 2.0 | 7.0 | 0.00 | 0.18 | 0.04 | 75 | 1017.3 |
| 20260901120303 | 70 | 26 | 2.0 | 6.0 | 0.00 | 0.18 | 0.04 | 76 | 1017.3 |
| 20260901115802 | 70 | 68 | 2.0 | 5.0 | 0.00 | 0.18 | 0.04 | 77 | 1017.4 |
| 20260901115550 | 69 | 342 | 2.0 | 6.0 | 0.00 | 0.18 | 0.04 | 79 | 1017.3 |
| 20260901114802 | 69 | 63 | 2.0 | 6.0 | 0.00 | 0.18 | 0.04 | 77 | 1017.4 |
| 20260901114320 | 70 | 250 | 2.0 | 8.0 | 0.00 | 0.18 | 0.04 | 76 | 1017.4 |
| 20260901114312 | 70 | 0 | 2.0 | 6.0 | 0.00 | 0.18 | 0.04 | 77 | 1017.4 |
| 20260901113302 | 70 | 359 | 2.0 | 8.0 | 0.00 | 0.18 | 0.04 | 79 | 1017.4 |
| 20260901112802 | 70 | 250 | 2.0 | 6.0 | 0.00 | 0.18 | 0.04 | 82 | 1017.5 |
| 20260901112305 | 69 | 256 | 1.0 | 5.0 | 0.00 | 0.18 | 0.04 | 82 | 1017.4 |
| 20260901111802 | 68 | 70 | 1.0 | 5.0 | 0.00 | 0.18 | 0.04 | 83 | 1017.4 |
| 20260901111301 | 68 | 83 | 2.0 | 5.0 | 0.00 | 0.18 | 0.04 | 83 | 1017.4 |
| 20260901110804 | 68 | 231 | 2.0 | 5.0 | 0.00 | 0.18 | 0.04 | 82 | 1017.4 |
| 20260901110309 | 67 | 325 | 2.0 | 11.0 | 0.01 | 0.18 | 0.04 | 85 | 1017.4 |
| 20260901105751 | 67 | 315 | 2.0 | 11.0 | 0.01 | 0.18 | 0.04 | 85 | 1017.5 |
| 20260901105252 | 67 | 302 | 2.0 | 6.0 | 0.01 | 0.18 | 0.04 | 88 | 1017.6 |
| 20260901105039 | 66 | 270 | 1.0 | 6.0 | 0.01 | 0.18 | 0.04 | 89 | 1017.6 |
| 20260901104252 | 66 | 257 | 1.0 | 4.0 | 0.01 | 0.18 | 0.04 | 91 | 1017.6 |
| 20260901103809 | 65 | 340 | 0.0 | 3.0 | 0.01 | 0.20 | 0.04 | 91 | 1017.6 |
| 20260901103801 | 65 | 222 | 0.0 | 4.0 | 0.01 | 0.18 | 0.04 | 90 | 1017.6 |
| 20260901103036 | 65 | 269 | 1.0 | 3.0 | 0.01 | 0.20 | 0.04 | 91 | 1017.6 |
| 20260901102243 | 65 | 293 | 1.0 | 4.0 | 0.01 | 0.20 | 0.04 | 90 | 1017.5 |
| 20260901101744 | 65 | 271 | 1.0 | 4.0 | 0.01 | 0.20 | 0.04 | 89 | 1017.6 |
| 20260901101244 | 66 | 155 | 1.0 | 7.0 | 0.01 | 0.20 | 0.04 | 90 | 1017.6 |
| 20260901100741 | 66 | 142 | 2.0 | 7.0 | 0.00 | 0.19 | 0.03 | 90 | 1017.7 |
| 20260901100241 | 65 | 1 | 2.0 | 5.0 | 0.00 | 0.19 | 0.03 | 92 | 1017.7 |
| 20260901095741 | 65 | 259 | 1.0 | 5.0 | 0.00 | 0.19 | 0.03 | 91 | 1017.6 |
| 20260901095240 | 64 | 1 | 1.0 | 3.0 | 0.03 | 0.19 | 0.03 | 92 | 1017.6 |
| 20260901094736 | 64 | 248 | 1.0 | 5.0 | 0.03 | 0.19 | 0.03 | 92 | 1017.5 |
| 20260901094235 | 64 | 283 | 1.0 | 5.0 | 0.03 | 0.20 | 0.03 | 92 | 1017.6 |
| 20260901094038 | 64 | 338 | 1.0 | 6.0 | 0.03 | 0.20 | 0.03 | 92 | 1017.6 |
| 20260901093459 | 63 | 176 | 1.0 | 6.0 | 0.03 | 0.20 | 0.03 | 92 | 1017.6 |
| 20260901092732 | 63 | 267 | 1.0 | 4.0 | 0.03 | 0.22 | 0.03 | 92 | 1017.6 |
| 20260901092230 | 63 | 328 | 1.0 | 4.0 | 0.03 | 0.22 | 0.03 | 92 | 1017.5 |
| 20260901091731 | 63 | 286 | 1.0 | 6.0 | 0.03 | 0.22 | 0.03 | 92 | 1017.6 |
| 20260901091223 | 63 | 280 | 1.0 | 6.0 | 0.03 | 0.22 | 0.03 | 91 | 1017.6 |
| 20260901090950 | 63 | 328 | 1.0 | 4.0 | 0.03 | 0.22 | 0.03 | 90 | 1017.6 |
| 20260901090211 | 64 | 180 | 1.0 | 4.0 | 0.03 | 0.22 | 0.03 | 90 | 1017.5 |
| 20260901085934 | 64 | 302 | 2.0 | 8.0 | 0.02 | 0.21 | 0.02 | 88 | 1017.5 |
| 20260901085204 | 64 | 257 | 2.0 | 8.0 | 0.00 | 0.19 | 0.00 | 87 | 1017.4 |
| 20260901084704 | 64 | 294 | 2.0 | 8.0 | 0.00 | 0.19 | 0.00 | 87 | 1017.4 |
| 20260901084204 | 64 | 176 | 2.0 | 8.0 | 0.00 | 0.19 | 0.00 | 87 | 1017.3 |
| 20260901083702 | 64 | 317 | 1.0 | 4.0 | 0.00 | 0.19 | 0.00 | 88 | 1017.3 |
| 20260901083202 | 64 | 250 | 1.0 | 3.0 | 0.00 | 0.19 | 0.00 | 89 | 1017.2 |
| 20260901082704 | 64 | 244 | 2.0 | 6.0 | 0.00 | 0.19 | 0.00 | 89 | 1017.2 |
| 20260901082202 | 63 | 182 | 2.0 | 7.0 | 0.00 | 0.19 | 0.00 | 89 | 1017.1 |
| 20260901081705 | 63 | 281 | 2.0 | 9.0 | 0.00 | 0.19 | 0.00 | 89 | 1017.1 |
| 20260901081204 | 63 | 219 | 2.0 | 9.0 | 0.00 | 0.19 | 0.00 | 89 | 1017.1 |
| 20260901080704 | 63 | 156 | 2.0 | 9.0 | 0.00 | 0.19 | 0.00 | 90 | 1017.2 |
| 20260901080204 | 63 | 331 | 1.0 | 5.0 | 0.00 | 0.19 | 0.00 | 90 | 1017.1 |
| 20260901075705 | 63 | 298 | 1.0 | 4.0 | 0.00 | 0.19 | 0.00 | 90 | 1017.1 |
| 20260901075204 | 63 | 280 | 2.0 | 6.0 | 0.00 | 0.19 | 0.00 | 90 | 1017.0 |
| 20260901074703 | 63 | 274 | 2.0 | 6.0 | 0.00 | 0.19 | 0.00 | 90 | 1017.0 |
| 20260901074205 | 63 | 257 | 1.0 | 4.0 | 0.00 | 0.19 | 0.00 | 90 | 1016.9 |
| 20260901073702 | 63 | 300 | 1.0 | 5.0 | 0.00 | 0.19 | 0.00 | 90 | 1016.9 |
| 20260901073203 | 63 | 221 | 2.0 | 7.0 | 0.00 | 0.19 | 0.00 | 90 | 1016.8 |
| 20260901072701 | 63 | 167 | 2.0 | 7.0 | 0.00 | 0.19 | 0.00 | 89 | 1016.9 |
| 20260901072153 | 63 | 148 | 1.0 | 4.0 | 0.00 | 0.19 | 0.00 | 89 | 1016.8 |
| 20260901071651 | 63 | 221 | 1.0 | 3.0 | 0.00 | 0.19 | 0.00 | 89 | 1016.7 |
| 20260901071151 | 63 | 233 | 1.0 | 4.0 | 0.00 | 0.19 | 0.00 | 90 | 1016.7 |
| 20260901071020 | 63 | 210 | 2.0 | 7.0 | 0.00 | 0.19 | 0.00 | 90 | 1016.6 |
| 20260901070957 | 63 | 306 | 1.0 | 5.0 | 0.00 | 0.19 | 0.00 | 89 | 1016.7 |
| 20260901070953 | 63 | 355 | 1.0 | 7.0 | 0.00 | 0.19 | 0.00 | 90 | 1016.6 |